Time,TemperatureF,DewpointF,PressureIn,WindDirection,WindDirectionDegrees,WindSpeedMPH,WindSpeedGustMPH,Humidity,HourlyPrecipIn,Conditions,Clouds,dailyrainin,SoftwareType,DateUTC
2013-10-20 00:01:00,50.2,47.7,29.64,SSE,154,0.0,3.0,91,0.00,,,0.05,Wunderground v.1.15,2013-10-20 04:01:00,
2013-10-20 00:02:00,50.2,47.7,29.64,SSE,154,2.0,3.0,91,0.00,,,0.05,Wunderground v.1.15,2013-10-20 04:02:00,
2013-10-20 00:03:00,50.1,47.6,29.64,SSE,154,3.0,3.0,91,0.00,,,0.05,Wunderground v.1.15,2013-10-20 04:03:00,
2013-10-20 00:04:00,50.1,47.6,29.64,SSE,155,5.0,5.0,91,0.00,,,0.05,Wunderground v.1.15,2013-10-20 04:04:00,
2013-10-20 00:10:00,50.4,47.6,29.64,South,176,2.0,3.0,90,0.00,,,0.05,Wunderground v.1.15,2013-10-20 04:10:00,
2013-10-20 00:11:00,50.4,47.6,29.64,South,173,5.0,5.0,90,0.00,,,0.05,Wunderground v.1.15,2013-10-20 04:11:00,
2013-10-20 00:16:00,50.5,47.7,29.62,South,173,10.0,10.0,90,0.00,,,0.05,Wunderground v.1.15,2013-10-20 04:16:00,
2013-10-20 00:22:00,50.7,47.3,29.62,South,171,5.0,6.0,88,0.00,,,0.05,Wunderground v.1.15,2013-10-20 04:22:00,
2013-10-20 00:28:00,50.8,47.1,29.62,South,178,7.0,10.0,87,0.00,,,0.05,Wunderground v.1.15,2013-10-20 04:28:00,
2013-10-20 00:32:00,51.0,47.0,29.62,SSE,157,6.0,8.0,86,0.00,,,0.05,Wunderground v.1.15,2013-10-20 04:32:00,
2013-10-20 00:37:00,51.1,47.1,29.62,SSE,157,6.0,12.0,86,0.00,,,0.06,Wunderground v.1.15,2013-10-20 04:37:00,
2013-10-20 00:43:00,51.1,46.7,29.62,SSE,167,6.0,9.0,85,0.00,,,0.06,Wunderground v.1.15,2013-10-20 04:43:00,
2013-10-20 00:48:00,51.3,46.9,29.61,SSE,159,7.0,13.0,85,0.00,,,0.06,Wunderground v.1.15,2013-10-20 04:48:00,
2013-10-20 00:54:00,51.3,46.9,29.61,SSE,153,7.0,10.0,85,0.00,,,0.06,Wunderground v.1.15,2013-10-20 04:54:00,
2013-10-20 00:59:00,51.3,46.9,29.61,SSE,159,6.0,13.0,85,0.00,,,0.06,Wunderground v.1.15,2013-10-20 04:59:00,
2013-10-20 01:05:00,51.4,47.0,29.61,SSE,159,13.0,16.0,85,0.00,,,0.06,Wunderground v.1.15,2013-10-20 05:05:00,
2013-10-20 01:11:00,51.7,47.0,29.61,South,179,9.0,9.0,84,0.00,,,0.06,Wunderground v.1.15,2013-10-20 05:11:00,
2013-10-20 01:17:00,51.9,47.2,29.61,SSE,151,11.0,11.0,84,0.00,,,0.06,Wunderground v.1.15,2013-10-20 05:17:00,
2013-10-20 01:22:00,52.0,47.0,29.61,SSE,164,6.0,13.0,83,0.00,,,0.06,Wunderground v.1.15,2013-10-20 05:22:00,
2013-10-20 01:28:00,52.0,47.0,29.61,SSE,159,4.0,13.0,83,0.00,,,0.06,Wunderground v.1.15,2013-10-20 05:28:00,
2013-10-20 01:33:00,52.0,47.0,29.61,SE,145,3.0,10.0,83,0.00,,,0.06,Wunderground v.1.15,2013-10-20 05:33:00,
2013-10-20 01:38:00,52.2,47.2,29.61,SSE,157,6.0,10.0,83,0.00,,,0.06,Wunderground v.1.15,2013-10-20 05:38:00,
2013-10-20 01:44:00,52.8,47.1,29.61,South,184,8.0,12.0,81,0.00,,,0.06,Wunderground v.1.15,2013-10-20 05:44:00,
2013-10-20 01:49:00,52.9,47.2,29.61,South,174,12.0,12.0,81,0.00,,,0.06,Wunderground v.1.15,2013-10-20 05:49:00,
2013-10-20 01:55:00,53.1,47.1,29.61,South,170,10.0,13.0,80,0.00,,,0.06,Wunderground v.1.15,2013-10-20 05:55:00,
2013-10-20 02:00:00,52.9,47.2,29.62,SSE,156,13.0,13.0,81,0.00,,,0.06,Wunderground v.1.15,2013-10-20 06:00:00,
2013-10-20 02:05:00,52.9,47.2,29.62,SSE,167,7.0,17.0,81,0.00,,,0.06,Wunderground v.1.15,2013-10-20 06:05:00,
2013-10-20 02:10:00,52.9,47.2,29.62,SSE,167,10.0,11.0,81,0.00,,,0.06,Wunderground v.1.15,2013-10-20 06:10:00,
2013-10-20 02:15:00,52.8,47.1,29.62,South,182,8.0,14.0,81,0.00,,,0.06,Wunderground v.1.15,2013-10-20 06:15:00,
2013-10-20 02:20:00,52.8,47.1,29.62,SSE,149,11.0,12.0,81,0.00,,,0.06,Wunderground v.1.15,2013-10-20 06:20:00,
2013-10-20 02:25:00,52.8,47.5,29.62,South,182,9.0,12.0,82,0.00,,,0.06,Wunderground v.1.15,2013-10-20 06:25:00,
2013-10-20 02:30:00,52.6,47.3,29.62,SSE,163,6.0,6.0,82,0.00,,,0.06,Wunderground v.1.15,2013-10-20 06:30:00,
2013-10-20 02:35:00,52.5,47.2,29.62,South,190,7.0,11.0,82,0.00,,,0.06,Wunderground v.1.15,2013-10-20 06:35:00,
2013-10-20 02:40:00,52.5,46.8,29.62,South,175,5.0,10.0,81,0.00,,,0.06,Wunderground v.1.15,2013-10-20 06:40:00,
2013-10-20 02:45:00,52.5,46.8,29.62,South,171,4.0,10.0,81,0.00,,,0.06,Wunderground v.1.15,2013-10-20 06:45:00,
2013-10-20 02:50:00,52.5,46.8,29.62,SSE,167,5.0,7.0,81,0.00,,,0.06,Wunderground v.1.15,2013-10-20 06:50:00,
2013-10-20 02:55:00,52.3,47.0,29.62,SSE,165,5.0,7.0,82,0.00,,,0.06,Wunderground v.1.15,2013-10-20 06:55:00,
2013-10-20 03:00:00,52.2,46.9,29.63,SSE,159,6.0,6.0,82,0.00,,,0.06,Wunderground v.1.15,2013-10-20 07:00:00,
2013-10-20 03:05:00,51.9,46.9,29.63,South,170,5.0,10.0,83,0.00,,,0.06,Wunderground v.1.15,2013-10-20 07:05:00,
2013-10-20 03:10:00,51.9,46.9,29.63,SSE,163,6.0,9.0,83,0.00,,,0.06,Wunderground v.1.15,2013-10-20 07:10:00,
2013-10-20 03:15:00,51.9,46.9,29.63,South,173,5.0,10.0,83,0.00,,,0.06,Wunderground v.1.15,2013-10-20 07:15:00,
2013-10-20 03:20:00,51.9,46.6,29.63,SSE,168,3.0,5.0,82,0.00,,,0.06,Wunderground v.1.15,2013-10-20 07:20:00,
2013-10-20 03:25:00,51.9,46.3,29.63,SSE,164,3.0,7.0,81,0.00,,,0.06,Wunderground v.1.15,2013-10-20 07:25:00,
2013-10-20 03:30:00,51.9,46.6,29.64,SSE,161,3.0,4.0,82,0.00,,,0.06,Wunderground v.1.15,2013-10-20 07:30:00,
2013-10-20 03:35:00,51.7,46.4,29.64,SSE,163,3.0,10.0,82,0.00,,,0.06,Wunderground v.1.15,2013-10-20 07:35:00,
2013-10-20 03:40:00,51.7,46.4,29.64,South,169,3.0,5.0,82,0.00,,,0.06,Wunderground v.1.15,2013-10-20 07:40:00,
2013-10-20 03:45:00,51.7,46.1,29.64,South,173,5.0,10.0,81,0.00,,,0.06,Wunderground v.1.15,2013-10-20 07:45:00,
2013-10-20 03:50:00,51.7,45.7,29.64,South,180,7.0,7.0,80,0.00,,,0.06,Wunderground v.1.15,2013-10-20 07:50:00,
2013-10-20 03:55:00,51.9,45.6,29.64,South,177,5.0,11.0,79,0.00,,,0.06,Wunderground v.1.15,2013-10-20 07:55:00,
2013-10-20 04:00:00,51.7,45.4,29.65,South,169,4.0,6.0,79,0.00,,,0.06,Wunderground v.1.15,2013-10-20 08:00:00,
2013-10-20 04:05:00,51.6,45.0,29.65,South,170,2.0,6.0,78,0.00,,,0.06,Wunderground v.1.15,2013-10-20 08:05:00,
2013-10-20 04:10:00,51.4,44.4,29.65,SSE,168,3.0,3.0,77,0.00,,,0.06,Wunderground v.1.15,2013-10-20 08:10:00,
2013-10-20 04:15:00,51.3,44.7,29.66,SSE,168,3.0,6.0,78,0.00,,,0.06,Wunderground v.1.15,2013-10-20 08:15:00,
2013-10-20 04:20:00,51.1,44.1,29.66,SSE,168,0.0,2.0,77,0.00,,,0.06,Wunderground v.1.15,2013-10-20 08:20:00,
2013-10-20 04:25:00,51.1,44.1,29.66,SSE,168,0.0,2.0,77,0.00,,,0.06,Wunderground v.1.15,2013-10-20 08:25:00,
2013-10-20 04:30:00,51.1,44.5,29.67,SSE,168,0.0,0.0,78,0.00,,,0.06,Wunderground v.1.15,2013-10-20 08:30:00,
2013-10-20 04:35:00,51.0,44.0,29.67,SSE,163,6.0,10.0,77,0.00,,,0.06,Wunderground v.1.15,2013-10-20 08:35:00,
2013-10-20 04:40:00,51.1,43.4,29.67,South,190,3.0,7.0,75,0.00,,,0.06,Wunderground v.1.15,2013-10-20 08:40:00,
2013-10-20 04:46:00,51.1,43.4,29.67,SSW,212,0.0,7.0,75,0.00,,,0.00,Wunderground v.1.15,2013-10-20 08:46:00,
2013-10-20 04:51:00,51.1,43.4,29.67,SSW,209,5.0,5.0,75,0.00,,,0.00,Wunderground v.1.15,2013-10-20 08:51:00,
2013-10-20 04:56:00,51.3,42.9,29.67,South,186,4.0,6.0,73,0.00,,,0.00,Wunderground v.1.15,2013-10-20 08:56:00,
2013-10-20 05:01:00,51.4,42.7,29.68,South,184,3.0,6.0,72,0.00,,,0.00,Wunderground v.1.15,2013-10-20 09:01:00,
2013-10-20 05:06:00,51.4,42.7,29.68,South,184,2.0,6.0,72,0.00,,,0.00,Wunderground v.1.15,2013-10-20 09:06:00,
2013-10-20 05:11:00,51.3,42.6,29.68,SSE,165,9.0,9.0,72,0.00,,,0.00,Wunderground v.1.15,2013-10-20 09:11:00,
2013-10-20 05:16:00,51.1,42.4,29.68,SSE,162,4.0,9.0,72,0.00,,,0.00,Wunderground v.1.15,2013-10-20 09:16:00,
2013-10-20 05:21:00,51.0,42.3,29.68,SSE,163,5.0,6.0,72,0.00,,,0.00,Wunderground v.1.15,2013-10-20 09:21:00,
2013-10-20 05:26:00,50.8,42.5,29.68,SSE,163,0.0,6.0,73,0.00,,,0.00,Wunderground v.1.15,2013-10-20 09:26:00,
2013-10-20 05:31:00,50.7,42.7,29.70,SSE,163,2.0,3.0,74,0.00,,,0.00,Wunderground v.1.15,2013-10-20 09:31:00,
2013-10-20 05:36:00,50.7,42.4,29.70,South,178,0.0,5.0,73,0.00,,,0.00,Wunderground v.1.15,2013-10-20 09:36:00,
2013-10-20 05:41:00,50.5,42.5,29.70,SW,232,2.0,3.0,74,0.00,,,0.00,Wunderground v.1.15,2013-10-20 09:41:00,
2013-10-20 05:46:00,50.5,41.1,29.69,South,169,1.0,10.0,70,0.00,,,0.00,Wunderground v.1.15,2013-10-20 09:46:00,
2013-10-20 05:51:00,50.7,41.6,29.69,South,169,0.0,2.0,71,0.00,,,0.00,Wunderground v.1.15,2013-10-20 09:51:00,
2013-10-20 05:56:00,50.4,42.1,29.69,South,169,0.0,2.0,73,0.00,,,0.00,Wunderground v.1.15,2013-10-20 09:56:00,
2013-10-20 06:01:00,50.1,42.1,29.70,South,169,0.0,0.0,74,0.00,,,0.00,Wunderground v.1.15,2013-10-20 10:01:00,
2013-10-20 06:06:00,49.9,41.9,29.70,South,169,0.0,0.0,74,0.00,,,0.00,Wunderground v.1.15,2013-10-20 10:06:00,
2013-10-20 06:11:00,50.2,41.5,29.70,South,169,0.0,2.0,72,0.00,,,0.00,Wunderground v.1.15,2013-10-20 10:11:00,
2013-10-20 06:16:00,50.2,42.2,29.70,South,169,0.0,2.0,74,0.00,,,0.00,Wunderground v.1.15,2013-10-20 10:16:00,
2013-10-20 06:21:00,50.1,41.8,29.70,South,169,3.0,4.0,73,0.00,,,0.00,Wunderground v.1.15,2013-10-20 10:21:00,
2013-10-20 06:26:00,50.4,41.0,29.70,South,169,2.0,5.0,70,0.00,,,0.00,Wunderground v.1.15,2013-10-20 10:26:00,
2013-10-20 06:31:00,50.7,40.9,29.72,South,169,0.0,2.0,69,0.00,,,0.00,Wunderground v.1.15,2013-10-20 10:31:00,
2013-10-20 06:36:00,50.7,39.7,29.72,South,169,1.0,3.0,66,0.00,,,0.00,Wunderground v.1.15,2013-10-20 10:36:00,
2013-10-20 06:41:00,50.4,41.3,29.72,SE,136,4.0,5.0,71,0.00,,,0.00,Wunderground v.1.15,2013-10-20 10:41:00,
2013-10-20 06:46:00,50.1,41.1,29.71,ESE,114,4.0,7.0,71,0.00,,,0.00,Wunderground v.1.15,2013-10-20 10:46:00,
2013-10-20 06:51:00,49.8,40.8,29.71,SSE,166,3.0,6.0,71,0.00,,,0.00,Wunderground v.1.15,2013-10-20 10:51:00,
2013-10-20 06:56:00,49.6,39.8,29.71,South,169,3.0,7.0,69,0.00,,,0.00,Wunderground v.1.15,2013-10-20 10:56:00,
2013-10-20 07:01:00,49.6,39.8,29.73,SSE,168,4.0,6.0,69,0.00,,,0.00,Wunderground v.1.15,2013-10-20 11:01:00,
2013-10-20 07:06:00,49.6,39.8,29.73,SSE,168,4.0,6.0,69,0.00,,,0.00,Wunderground v.1.15,2013-10-20 11:06:00,
2013-10-20 07:11:00,49.6,39.8,29.73,SSE,168,2.0,4.0,69,0.00,,,0.00,Wunderground v.1.15,2013-10-20 11:11:00,
2013-10-20 07:16:00,49.6,39.8,29.73,SSE,168,0.0,4.0,69,0.00,,,0.00,Wunderground v.1.15,2013-10-20 11:16:00,
2013-10-20 07:21:00,49.4,40.0,29.73,SSE,168,2.0,3.0,70,0.00,,,0.00,Wunderground v.1.15,2013-10-20 11:21:00,
2013-10-20 07:26:00,49.4,40.0,29.73,SSE,168,2.0,4.0,70,0.00,,,0.00,Wunderground v.1.15,2013-10-20 11:26:00,
2013-10-20 07:31:00,49.2,39.8,29.73,SSE,168,0.0,2.0,70,0.00,,,0.00,Wunderground v.1.15,2013-10-20 11:31:00,
2013-10-20 07:36:00,49.1,40.5,29.73,SSE,168,0.0,2.0,72,0.00,,,0.00,Wunderground v.1.15,2013-10-20 11:36:00,
2013-10-20 07:41:00,48.9,39.9,29.73,SSE,168,0.0,0.0,71,0.00,,,0.00,Wunderground v.1.15,2013-10-20 11:41:00,
2013-10-20 07:46:00,48.9,40.6,29.75,SSE,168,0.0,0.0,73,0.00,,,0.00,Wunderground v.1.15,2013-10-20 11:46:00,
2013-10-20 07:51:00,48.8,40.9,29.75,SSE,168,0.0,0.0,74,0.00,,,0.00,Wunderground v.1.15,2013-10-20 11:51:00,
2013-10-20 07:56:00,48.8,40.9,29.75,SSE,168,0.0,0.0,74,0.00,,,0.00,Wunderground v.1.15,2013-10-20 11:56:00,
2013-10-20 08:01:00,48.8,40.5,29.75,WSW,247,9.0,9.0,73,0.00,,,0.00,Wunderground v.1.15,2013-10-20 12:01:00,
2013-10-20 08:07:00,49.8,35.6,29.75,WNW,284,4.0,14.0,58,0.00,,,0.00,Wunderground v.1.15,2013-10-20 12:07:00,
2013-10-20 08:12:00,50.4,39.1,29.75,NW,316,3.0,5.0,65,0.00,,,0.00,Wunderground v.1.15,2013-10-20 12:12:00,
2013-10-20 08:17:00,50.4,37.4,29.76,WNW,298,9.0,9.0,61,0.00,,,0.00,Wunderground v.1.15,2013-10-20 12:17:00,
2013-10-20 08:22:00,50.8,36.5,29.76,WNW,300,4.0,10.0,58,0.00,,,0.00,Wunderground v.1.15,2013-10-20 12:22:00,
2013-10-20 08:27:00,51.1,36.8,29.76,NW,320,3.0,14.0,58,0.00,,,0.00,Wunderground v.1.15,2013-10-20 12:27:00,
2013-10-20 08:32:00,51.1,36.4,29.76,WNW,290,11.0,12.0,57,0.00,,,0.00,Wunderground v.1.15,2013-10-20 12:32:00,
2013-10-20 08:37:00,51.0,35.8,29.76,NW,311,3.0,14.0,56,0.00,,,0.00,Wunderground v.1.15,2013-10-20 12:37:00,
2013-10-20 08:42:00,51.0,36.3,29.76,NW,313,1.0,8.0,57,0.00,,,0.00,Wunderground v.1.15,2013-10-20 12:42:00,
2013-10-20 08:47:00,51.3,37.0,29.77,NW,313,0.0,8.0,58,0.00,,,0.00,Wunderground v.1.15,2013-10-20 12:47:00,
2013-10-20 08:52:00,51.3,36.1,29.77,NW,309,0.0,5.0,56,0.00,,,0.00,Wunderground v.1.15,2013-10-20 12:52:00,
2013-10-20 08:57:00,51.6,37.7,29.77,SW,233,4.0,6.0,59,0.00,,,0.00,Wunderground v.1.15,2013-10-20 12:57:00,
2013-10-20 09:02:00,51.0,38.4,29.78,South,175,10.0,10.0,62,0.00,,,0.00,Wunderground v.1.15,2013-10-20 13:02:00,
2013-10-20 09:07:00,50.5,39.2,29.78,South,180,4.0,10.0,65,0.00,,,0.00,Wunderground v.1.15,2013-10-20 13:07:00,
2013-10-20 09:12:00,50.4,38.7,29.78,South,188,7.0,8.0,64,0.00,,,0.00,Wunderground v.1.15,2013-10-20 13:12:00,
2013-10-20 09:17:00,50.4,37.9,29.78,WSW,245,3.0,12.0,62,0.00,,,0.00,Wunderground v.1.15,2013-10-20 13:17:00,
2013-10-20 09:22:00,50.4,37.9,29.78,SSW,211,6.0,9.0,62,0.00,,,0.00,Wunderground v.1.15,2013-10-20 13:22:00,
2013-10-20 09:27:00,50.4,38.3,29.78,South,173,5.0,9.0,63,0.00,,,0.00,Wunderground v.1.15,2013-10-20 13:27:00,
2013-10-20 09:32:00,50.4,39.1,29.79,South,173,3.0,7.0,65,0.00,,,0.00,Wunderground v.1.15,2013-10-20 13:32:00,
2013-10-20 09:37:00,50.2,40.0,29.79,SSE,150,5.0,8.0,68,0.00,,,0.00,Wunderground v.1.15,2013-10-20 13:37:00,
2013-10-20 09:42:00,50.2,40.8,29.79,SSE,151,3.0,5.0,70,0.00,,,0.00,Wunderground v.1.15,2013-10-20 13:42:00,
2013-10-20 09:47:00,50.1,39.9,29.79,SE,146,2.0,6.0,68,0.00,,,0.00,Wunderground v.1.15,2013-10-20 13:47:00,
2013-10-20 09:52:00,50.2,40.0,29.79,SE,145,2.0,4.0,68,0.00,,,0.00,Wunderground v.1.15,2013-10-20 13:52:00,
2013-10-20 09:57:00,50.2,40.0,29.79,SE,145,3.0,5.0,68,0.00,,,0.00,Wunderground v.1.15,2013-10-20 13:57:00,
2013-10-20 10:02:00,50.4,40.6,29.80,SE,145,4.0,4.0,69,0.00,,,0.00,Wunderground v.1.15,2013-10-20 14:02:00,
2013-10-20 10:07:00,50.4,39.9,29.80,SE,145,2.0,5.0,67,0.00,,,0.00,Wunderground v.1.15,2013-10-20 14:07:00,
2013-10-20 10:12:00,50.7,39.7,29.80,SE,145,2.0,5.0,66,0.00,,,0.00,Wunderground v.1.15,2013-10-20 14:12:00,
2013-10-20 10:17:00,50.8,39.8,29.80,SE,145,3.0,5.0,66,0.00,,,0.00,Wunderground v.1.15,2013-10-20 14:17:00,
2013-10-20 10:22:00,51.0,40.0,29.80,SE,145,0.0,4.0,66,0.00,,,0.00,Wunderground v.1.15,2013-10-20 14:22:00,
2013-10-20 10:27:00,51.1,40.1,29.80,SE,145,3.0,4.0,66,0.00,,,0.00,Wunderground v.1.15,2013-10-20 14:27:00,
2013-10-20 10:32:00,51.1,40.1,29.80,SE,145,3.0,3.0,66,0.00,,,0.00,Wunderground v.1.15,2013-10-20 14:32:00,
2013-10-20 10:37:00,51.4,40.4,29.80,SE,144,0.0,4.0,66,0.00,,,0.00,Wunderground v.1.15,2013-10-20 14:37:00,
2013-10-20 10:42:00,51.9,40.5,29.80,SE,144,0.0,3.0,65,0.00,,,0.00,Wunderground v.1.15,2013-10-20 14:42:00,
2013-10-20 10:47:00,51.9,39.3,29.80,SSE,147,5.0,7.0,62,0.00,,,0.00,Wunderground v.1.15,2013-10-20 14:47:00,
2013-10-20 10:52:00,51.9,39.3,29.80,SSE,148,2.0,5.0,62,0.00,,,0.00,Wunderground v.1.15,2013-10-20 14:52:00,
2013-10-20 10:57:00,52.0,39.0,29.80,SSE,150,5.0,8.0,61,0.00,,,0.00,Wunderground v.1.15,2013-10-20 14:57:00,
2013-10-20 11:02:00,52.2,38.7,29.81,South,177,11.0,11.0,60,0.00,,,0.00,Wunderground v.1.15,2013-10-20 15:02:00,
2013-10-20 11:07:00,52.3,38.8,29.81,South,182,0.0,11.0,60,0.00,,,0.00,Wunderground v.1.15,2013-10-20 15:07:00,
2013-10-20 11:12:00,52.8,38.9,29.81,SSE,167,2.0,7.0,59,0.00,,,0.00,Wunderground v.1.15,2013-10-20 15:12:00,
2013-10-20 11:17:00,53.6,38.7,29.81,SSE,165,3.0,10.0,57,0.00,,,0.00,Wunderground v.1.15,2013-10-20 15:17:00,
2013-10-20 11:22:00,54.2,39.3,29.81,South,184,6.0,7.0,57,0.00,,,0.00,Wunderground v.1.15,2013-10-20 15:22:00,
2013-10-20 11:27:00,54.2,37.9,29.81,South,188,5.0,11.0,54,0.00,,,0.00,Wunderground v.1.15,2013-10-20 15:27:00,
2013-10-20 11:33:00,54.4,38.6,29.81,SSW,196,4.0,9.0,55,0.00,,,0.00,Wunderground v.1.15,2013-10-20 15:33:00,
2013-10-20 11:38:00,54.7,36.9,29.81,SSW,206,4.0,10.0,51,0.00,,,0.00,Wunderground v.1.15,2013-10-20 15:38:00,
2013-10-20 11:43:00,54.5,36.7,29.81,South,182,2.0,12.0,51,0.00,,,0.00,Wunderground v.1.15,2013-10-20 15:43:00,
2013-10-20 11:48:00,54.8,37.5,29.81,South,191,10.0,12.0,52,0.00,,,0.00,Wunderground v.1.15,2013-10-20 15:48:00,
2013-10-20 11:53:00,54.4,37.1,29.81,South,187,5.0,9.0,52,0.00,,,0.00,Wunderground v.1.15,2013-10-20 15:53:00,
2013-10-20 11:58:00,54.1,36.4,29.81,SSW,207,0.0,10.0,51,0.00,,,0.00,Wunderground v.1.15,2013-10-20 15:58:00,
2013-10-20 12:03:00,54.4,35.6,29.81,SSW,208,3.0,7.0,49,0.00,,,0.00,Wunderground v.1.15,2013-10-20 16:03:00,
2013-10-20 12:08:00,54.4,37.1,29.81,SSW,212,2.0,7.0,52,0.00,,,0.00,Wunderground v.1.15,2013-10-20 16:08:00,
2013-10-20 12:13:00,54.8,35.5,29.82,SW,226,4.0,10.0,48,0.00,,,0.00,Wunderground v.1.15,2013-10-20 16:13:00,
2013-10-20 12:19:00,54.7,35.4,29.82,SW,234,3.0,10.0,48,0.00,,,0.00,Wunderground v.1.15,2013-10-20 16:19:00,
2013-10-20 12:24:00,54.4,34.6,29.82,SW,219,5.0,12.0,47,0.00,,,0.00,Wunderground v.1.15,2013-10-20 16:24:00,
2013-10-20 12:29:00,54.1,34.8,29.82,SW,219,1.0,12.0,48,0.00,,,0.00,Wunderground v.1.15,2013-10-20 16:29:00,
2013-10-20 12:34:00,54.2,34.4,29.82,SW,217,2.0,7.0,47,0.00,,,0.00,Wunderground v.1.15,2013-10-20 16:34:00,
2013-10-20 12:36:00,54.2,35.4,29.82,SW,218,5.0,7.0,49,0.00,,,0.00,Wunderground v.1.15,2013-10-20 16:36:00,
2013-10-20 12:41:00,54.4,35.1,29.82,West,263,4.0,7.0,48,0.00,,,0.00,Wunderground v.1.15,2013-10-20 16:41:00,
2013-10-20 12:46:00,54.5,35.2,29.82,West,269,5.0,15.0,48,0.00,,,0.00,Wunderground v.1.15,2013-10-20 16:46:00,
2013-10-20 12:51:00,54.8,33.8,29.82,West,261,4.0,7.0,45,0.00,,,0.00,Wunderground v.1.15,2013-10-20 16:51:00,
2013-10-20 12:56:00,55.1,35.7,29.82,NW,309,0.0,10.0,48,0.00,,,0.00,Wunderground v.1.15,2013-10-20 16:56:00,
2013-10-20 13:01:00,55.1,35.2,29.82,WSW,257,8.0,9.0,47,0.00,,,0.00,Wunderground v.1.15,2013-10-20 17:01:00,
2013-10-20 13:06:00,55.0,36.2,29.82,SSE,167,5.0,10.0,49,0.00,,,0.00,Wunderground v.1.15,2013-10-20 17:06:00,
2013-10-20 13:11:00,54.7,35.9,29.82,SSW,200,3.0,7.0,49,0.00,,,0.00,Wunderground v.1.15,2013-10-20 17:11:00,
2013-10-20 13:16:00,54.7,35.9,29.82,SSW,203,2.0,7.0,49,0.00,,,0.00,Wunderground v.1.15,2013-10-20 17:16:00,
2013-10-20 13:21:00,54.7,32.6,29.82,SW,234,7.0,10.0,43,0.00,,,0.00,Wunderground v.1.15,2013-10-20 17:21:00,
2013-10-20 13:26:00,55.0,35.7,29.82,West,271,6.0,11.0,48,0.00,,,0.00,Wunderground v.1.15,2013-10-20 17:26:00,
2013-10-20 13:31:00,55.1,33.0,29.82,NW,305,9.0,18.0,43,0.00,,,0.00,Wunderground v.1.15,2013-10-20 17:31:00,
2013-10-20 13:36:00,55.1,31.8,29.82,West,279,9.0,18.0,41,0.00,,,0.00,Wunderground v.1.15,2013-10-20 17:36:00,
2013-10-20 13:41:00,55.1,31.8,29.82,West,267,10.0,16.0,41,0.00,,,0.00,Wunderground v.1.15,2013-10-20 17:41:00,
2013-10-20 13:46:00,55.0,32.9,29.82,WNW,298,9.0,16.0,43,0.00,,,0.00,Wunderground v.1.15,2013-10-20 17:46:00,
2013-10-20 13:51:00,55.1,33.6,29.82,West,272,2.0,9.0,44,0.00,,,0.00,Wunderground v.1.15,2013-10-20 17:51:00,
2013-10-20 13:56:00,55.4,33.8,29.82,WNW,296,8.0,9.0,44,0.00,,,0.00,Wunderground v.1.15,2013-10-20 17:56:00,
2013-10-20 14:01:00,55.4,33.3,29.82,WNW,289,9.0,11.0,43,0.00,,,0.00,Wunderground v.1.15,2013-10-20 18:01:00,
2013-10-20 14:06:00,55.4,32.7,29.82,WSW,253,9.0,14.0,42,0.00,,,0.00,Wunderground v.1.15,2013-10-20 18:06:00,
2013-10-20 14:11:00,55.1,33.0,29.82,West,275,8.0,13.0,43,0.00,,,0.00,Wunderground v.1.15,2013-10-20 18:11:00,
2013-10-20 14:16:00,55.6,34.6,29.83,West,280,14.0,17.0,45,0.00,,,0.00,Wunderground v.1.15,2013-10-20 18:16:00,
2013-10-20 14:21:00,56.2,34.0,29.83,SW,236,12.0,15.0,43,0.00,,,0.00,Wunderground v.1.15,2013-10-20 18:21:00,
2013-10-20 14:26:00,56.3,33.5,29.83,West,275,12.0,18.0,42,0.00,,,0.00,Wunderground v.1.15,2013-10-20 18:26:00,
2013-10-20 14:31:00,56.2,34.0,29.84,WNW,284,15.0,15.0,43,0.00,,,0.00,Wunderground v.1.15,2013-10-20 18:31:00,
2013-10-20 14:36:00,56.0,33.2,29.84,West,263,7.0,19.0,42,0.00,,,0.00,Wunderground v.1.15,2013-10-20 18:36:00,
2013-10-20 14:41:00,56.2,35.7,29.84,WSW,256,11.0,16.0,46,0.00,,,0.00,Wunderground v.1.15,2013-10-20 18:41:00,
2013-10-20 14:47:00,56.3,35.8,29.84,WSW,238,12.0,16.0,46,0.00,,,0.00,Wunderground v.1.15,2013-10-20 18:47:00,
2013-10-20 14:52:00,56.0,33.8,29.84,West,270,5.0,11.0,43,0.00,,,0.00,Wunderground v.1.15,2013-10-20 18:52:00,
2013-10-20 14:57:00,55.7,35.2,29.84,WSW,254,6.0,11.0,46,0.00,,,0.00,Wunderground v.1.15,2013-10-20 18:57:00,
2013-10-20 15:02:00,55.7,33.5,29.84,WSW,238,3.0,16.0,43,0.00,,,0.00,Wunderground v.1.15,2013-10-20 19:02:00,
2013-10-20 15:07:00,56.0,34.9,29.84,SW,233,11.0,16.0,45,0.00,,,0.00,Wunderground v.1.15,2013-10-20 19:07:00,
2013-10-20 15:12:00,55.7,31.7,29.84,West,273,11.0,14.0,40,0.00,,,0.00,Wunderground v.1.15,2013-10-20 19:12:00,
2013-10-20 15:17:00,55.6,34.0,29.84,West,263,12.0,15.0,44,0.00,,,0.00,Wunderground v.1.15,2013-10-20 19:17:00,
2013-10-20 15:22:00,55.6,33.4,29.84,WSW,254,5.0,10.0,43,0.00,,,0.00,Wunderground v.1.15,2013-10-20 19:22:00,
2013-10-20 15:27:00,55.6,34.0,29.84,West,276,11.0,11.0,44,0.00,,,0.00,Wunderground v.1.15,2013-10-20 19:27:00,
2013-10-20 15:32:00,56.5,33.7,29.84,SW,229,6.0,14.0,42,0.00,,,0.00,Wunderground v.1.15,2013-10-20 19:32:00,
2013-10-20 15:37:00,57.2,33.7,29.84,West,269,15.0,18.0,41,0.00,,,0.00,Wunderground v.1.15,2013-10-20 19:37:00,
2013-10-20 15:42:00,56.9,32.8,29.84,WSW,248,11.0,14.0,40,0.00,,,0.00,Wunderground v.1.15,2013-10-20 19:42:00,
2013-10-20 15:47:00,56.6,31.9,29.84,WNW,287,9.0,17.0,39,0.00,,,0.00,Wunderground v.1.15,2013-10-20 19:47:00,
2013-10-20 15:52:00,57.0,32.9,29.84,WSW,240,14.0,14.0,40,0.00,,,0.00,Wunderground v.1.15,2013-10-20 19:52:00,
2013-10-20 15:57:00,57.0,31.6,29.84,SW,227,10.0,19.0,38,0.00,,,0.00,Wunderground v.1.15,2013-10-20 19:57:00,
2013-10-20 16:02:00,57.0,32.3,29.84,SW,218,12.0,16.0,39,0.00,,,0.00,Wunderground v.1.15,2013-10-20 20:02:00,
2013-10-20 16:07:00,57.0,32.3,29.84,WSW,239,11.0,18.0,39,0.00,,,0.00,Wunderground v.1.15,2013-10-20 20:07:00,
2013-10-20 16:12:00,57.0,32.9,29.84,West,264,8.0,15.0,40,0.00,,,0.00,Wunderground v.1.15,2013-10-20 20:12:00,
2013-10-20 16:17:00,56.6,32.5,29.85,WSW,242,12.0,15.0,40,0.00,,,0.00,Wunderground v.1.15,2013-10-20 20:17:00,
2013-10-20 16:22:00,56.5,33.7,29.85,SW,236,9.0,10.0,42,0.00,,,0.00,Wunderground v.1.15,2013-10-20 20:22:00,
2013-10-20 16:27:00,56.2,31.5,29.85,SW,219,7.0,17.0,39,0.00,,,0.00,Wunderground v.1.15,2013-10-20 20:27:00,
2013-10-20 16:32:00,55.9,33.1,29.85,West,259,4.0,14.0,42,0.00,,,0.00,Wunderground v.1.15,2013-10-20 20:32:00,
2013-10-20 16:37:00,55.7,32.9,29.85,West,275,5.0,14.0,42,0.00,,,0.00,Wunderground v.1.15,2013-10-20 20:37:00,
2013-10-20 16:42:00,55.4,34.4,29.85,West,261,3.0,5.0,45,0.00,,,0.00,Wunderground v.1.15,2013-10-20 20:42:00,
2013-10-20 16:48:00,55.4,32.7,29.86,West,272,4.0,8.0,42,0.00,,,0.00,Wunderground v.1.15,2013-10-20 20:48:00,
2013-10-20 16:53:00,56.0,34.4,29.86,WSW,258,5.0,7.0,44,0.00,,,0.00,Wunderground v.1.15,2013-10-20 20:53:00,
2013-10-20 16:58:00,56.5,33.7,29.86,WSW,258,5.0,7.0,42,0.00,,,0.00,Wunderground v.1.15,2013-10-20 20:58:00,
2013-10-20 17:04:00,56.3,34.1,29.86,West,269,4.0,5.0,43,0.00,,,0.00,Wunderground v.1.15,2013-10-20 21:04:00,
2013-10-20 17:09:00,56.0,34.4,29.86,West,269,4.0,5.0,44,0.00,,,0.00,Wunderground v.1.15,2013-10-20 21:09:00,
2013-10-20 17:14:00,55.7,34.1,29.87,West,270,2.0,5.0,44,0.00,,,0.00,Wunderground v.1.15,2013-10-20 21:14:00,
2013-10-20 17:19:00,55.3,34.3,29.87,WSW,247,5.0,9.0,45,0.00,,,0.00,Wunderground v.1.15,2013-10-20 21:19:00,
2013-10-20 17:24:00,54.8,34.4,29.87,West,262,3.0,10.0,46,0.00,,,0.00,Wunderground v.1.15,2013-10-20 21:24:00,
2013-10-20 17:29:00,54.4,34.0,29.87,SW,234,4.0,11.0,46,0.00,,,0.00,Wunderground v.1.15,2013-10-20 21:29:00,
2013-10-20 17:34:00,54.2,33.3,29.87,SW,232,7.0,10.0,45,0.00,,,0.00,Wunderground v.1.15,2013-10-20 21:34:00,
2013-10-20 17:39:00,54.1,34.8,29.87,SW,232,0.0,10.0,48,0.00,,,0.00,Wunderground v.1.15,2013-10-20 21:39:00,
2013-10-20 17:44:00,53.6,34.9,29.88,SW,232,0.0,4.0,49,0.00,,,0.00,Wunderground v.1.15,2013-10-20 21:44:00,
2013-10-20 17:49:00,53.3,34.6,29.88,SW,232,0.0,4.0,49,0.00,,,0.00,Wunderground v.1.15,2013-10-20 21:49:00,
2013-10-20 17:54:00,53.1,34.9,29.88,SW,231,0.0,4.0,50,0.00,,,0.00,Wunderground v.1.15,2013-10-20 21:54:00,
2013-10-20 17:59:00,52.9,35.2,29.89,SW,230,2.0,4.0,51,0.00,,,0.00,Wunderground v.1.15,2013-10-20 21:59:00,
2013-10-20 18:05:00,52.8,35.6,29.89,SW,228,3.0,4.0,52,0.00,,,0.00,Wunderground v.1.15,2013-10-20 22:05:00,
2013-10-20 18:10:00,52.5,36.3,29.89,SW,225,0.0,2.0,54,0.00,,,0.00,Wunderground v.1.15,2013-10-20 22:10:00,
2013-10-20 18:15:00,52.0,36.8,29.89,SW,225,0.0,2.0,56,0.00,,,0.00,Wunderground v.1.15,2013-10-20 22:15:00,
2013-10-20 18:20:00,51.7,36.5,29.89,SW,223,2.0,2.0,56,0.00,,,0.00,Wunderground v.1.15,2013-10-20 22:20:00,
2013-10-20 18:25:00,51.6,35.9,29.89,SW,223,2.0,4.0,55,0.00,,,0.00,Wunderground v.1.15,2013-10-20 22:25:00,
2013-10-20 18:30:00,51.7,35.6,29.90,SW,223,2.0,3.0,54,0.00,,,0.00,Wunderground v.1.15,2013-10-20 22:30:00,
2013-10-20 18:35:00,51.9,35.8,29.90,SW,223,3.0,6.0,54,0.00,,,0.00,Wunderground v.1.15,2013-10-20 22:35:00,
2013-10-20 18:40:00,51.7,36.0,29.90,SW,221,3.0,3.0,55,0.00,,,0.00,Wunderground v.1.15,2013-10-20 22:40:00,
2013-10-20 18:45:00,51.9,35.8,29.90,SW,232,4.0,10.0,54,0.00,,,0.00,Wunderground v.1.15,2013-10-20 22:45:00,
2013-10-20 18:50:00,52.2,35.6,29.90,WSW,238,3.0,6.0,53,0.00,,,0.00,Wunderground v.1.15,2013-10-20 22:50:00,
2013-10-20 18:55:00,52.0,35.4,29.90,WSW,238,2.0,6.0,53,0.00,,,0.00,Wunderground v.1.15,2013-10-20 22:55:00,
2013-10-20 19:00:00,51.9,35.8,29.91,WSW,238,5.0,6.0,54,0.00,,,0.00,Wunderground v.1.15,2013-10-20 23:00:00,
2013-10-20 19:05:00,51.4,36.2,29.91,WSW,238,3.0,6.0,56,0.00,,,0.00,Wunderground v.1.15,2013-10-20 23:05:00,
2013-10-20 19:10:00,51.0,36.3,29.91,WSW,238,3.0,3.0,57,0.00,,,0.00,Wunderground v.1.15,2013-10-20 23:10:00,
2013-10-20 19:15:00,50.7,36.5,29.92,WSW,238,0.0,3.0,58,0.00,,,0.00,Wunderground v.1.15,2013-10-20 23:15:00,
2013-10-20 19:20:00,50.2,36.4,29.92,WSW,238,3.0,3.0,59,0.00,,,0.00,Wunderground v.1.15,2013-10-20 23:20:00,
2013-10-20 19:25:00,49.9,36.1,29.92,WSW,238,3.0,4.0,59,0.00,,,0.00,Wunderground v.1.15,2013-10-20 23:25:00,
2013-10-20 19:30:00,49.6,35.8,29.92,WSW,238,3.0,4.0,59,0.00,,,0.00,Wunderground v.1.15,2013-10-20 23:30:00,
2013-10-20 19:35:00,49.6,35.8,29.92,SW,234,3.0,5.0,59,0.00,,,0.00,Wunderground v.1.15,2013-10-20 23:35:00,
2013-10-20 19:40:00,49.4,36.1,29.92,SW,221,5.0,6.0,60,0.00,,,0.00,Wunderground v.1.15,2013-10-20 23:40:00,
2013-10-20 19:45:00,49.4,36.1,29.92,SW,215,2.0,6.0,60,0.00,,,0.00,Wunderground v.1.15,2013-10-20 23:45:00,
2013-10-20 19:50:00,48.9,36.0,29.92,SW,215,2.0,3.0,61,0.00,,,0.00,Wunderground v.1.15,2013-10-20 23:50:00,
2013-10-20 19:55:00,48.6,36.2,29.92,SW,215,0.0,3.0,62,0.00,,,0.00,Wunderground v.1.15,2013-10-20 23:55:00,
2013-10-20 20:00:00,48.6,36.2,29.93,SSW,213,2.0,3.0,62,0.00,,,0.00,Wunderground v.1.15,2013-10-21 00:00:00,
2013-10-20 20:05:00,48.8,36.4,29.93,SSW,211,0.0,5.0,62,0.00,,,0.00,Wunderground v.1.15,2013-10-21 00:05:00,
2013-10-20 20:10:00,48.6,36.6,29.93,SSW,211,3.0,4.0,63,0.00,,,0.00,Wunderground v.1.15,2013-10-21 00:10:00,
2013-10-20 20:15:00,48.5,36.5,29.93,SSW,211,0.0,4.0,63,0.00,,,0.00,Wunderground v.1.15,2013-10-21 00:15:00,
2013-10-20 20:20:00,48.3,36.7,29.93,SSW,211,4.0,4.0,64,0.00,,,0.00,Wunderground v.1.15,2013-10-21 00:20:00,
2013-10-20 20:25:00,48.0,36.4,29.93,SSW,211,3.0,5.0,64,0.00,,,0.00,Wunderground v.1.15,2013-10-21 00:25:00,
2013-10-20 20:30:00,47.9,36.7,29.94,SSW,211,1.0,3.0,65,0.00,,,0.00,Wunderground v.1.15,2013-10-21 00:30:00,
2013-10-20 20:35:00,47.9,36.7,29.94,SSW,211,2.0,5.0,65,0.00,,,0.00,Wunderground v.1.15,2013-10-21 00:35:00,
2013-10-20 20:40:00,48.2,37.4,29.94,SSW,211,4.0,5.0,66,0.00,,,0.00,Wunderground v.1.15,2013-10-21 00:40:00,
2013-10-20 20:45:00,48.3,37.5,29.94,SSW,213,3.0,7.0,66,0.00,,,0.00,Wunderground v.1.15,2013-10-21 00:45:00,
2013-10-20 20:50:00,48.5,37.7,29.94,SSW,213,3.0,4.0,66,0.00,,,0.00,Wunderground v.1.15,2013-10-21 00:50:00,
2013-10-20 20:55:00,48.3,37.5,29.94,SSW,213,0.0,4.0,66,0.00,,,0.00,Wunderground v.1.15,2013-10-21 00:55:00,
2013-10-20 21:01:00,48.0,37.2,29.95,SSW,213,2.0,3.0,66,0.00,,,0.00,Wunderground v.1.15,2013-10-21 01:01:00,
2013-10-20 21:06:00,47.3,36.9,29.95,SSW,213,2.0,3.0,67,0.00,,,0.00,Wunderground v.1.15,2013-10-21 01:06:00,
2013-10-20 21:11:00,46.5,36.9,29.95,SSW,213,0.0,2.0,69,0.00,,,0.00,Wunderground v.1.15,2013-10-21 01:11:00,
2013-10-20 21:16:00,46.1,36.9,29.95,SSW,213,2.0,2.0,70,0.00,,,0.00,Wunderground v.1.15,2013-10-21 01:16:00,
2013-10-20 21:21:00,45.4,36.5,29.95,SSW,205,1.0,2.0,71,0.00,,,0.00,Wunderground v.1.15,2013-10-21 01:21:00,
2013-10-20 21:26:00,45.8,36.9,29.95,SSE,154,5.0,7.0,71,0.00,,,0.00,Wunderground v.1.15,2013-10-21 01:26:00,
2013-10-20 21:31:00,46.5,36.9,29.96,SSE,153,4.0,5.0,69,0.00,,,0.00,Wunderground v.1.15,2013-10-21 01:31:00,
2013-10-20 21:36:00,46.7,37.1,29.96,SSE,153,3.0,5.0,69,0.00,,,0.00,Wunderground v.1.15,2013-10-21 01:36:00,
2013-10-20 21:41:00,46.5,36.9,29.96,SSE,153,4.0,4.0,69,0.00,,,0.00,Wunderground v.1.15,2013-10-21 01:41:00,
2013-10-20 21:46:00,46.5,36.9,29.96,SE,144,5.0,6.0,69,0.00,,,0.00,Wunderground v.1.15,2013-10-21 01:46:00,
2013-10-20 21:51:00,46.4,36.8,29.96,SE,144,3.0,4.0,69,0.00,,,0.00,Wunderground v.1.15,2013-10-21 01:51:00,
2013-10-20 21:56:00,45.8,36.6,29.96,SE,144,3.0,4.0,70,0.00,,,0.00,Wunderground v.1.15,2013-10-21 01:56:00,
2013-10-20 22:01:00,46.2,37.0,29.97,SE,138,3.0,6.0,70,0.00,,,0.00,Wunderground v.1.15,2013-10-21 02:01:00,
2013-10-20 22:06:00,46.5,36.9,29.97,SE,136,7.0,7.0,69,0.00,,,0.00,Wunderground v.1.15,2013-10-21 02:06:00,
2013-10-20 22:11:00,47.0,37.0,29.97,SE,129,4.0,5.0,68,0.00,,,0.00,Wunderground v.1.15,2013-10-21 02:11:00,
2013-10-20 22:16:00,47.0,36.6,29.97,SE,126,4.0,6.0,67,0.00,,,0.00,Wunderground v.1.15,2013-10-21 02:16:00,
2013-10-20 22:21:00,46.7,36.7,29.97,ESE,120,4.0,6.0,68,0.00,,,0.00,Wunderground v.1.15,2013-10-21 02:21:00,
2013-10-20 22:26:00,46.4,36.8,29.97,ESE,121,5.0,7.0,69,0.00,,,0.00,Wunderground v.1.15,2013-10-21 02:26:00,
2013-10-20 22:31:00,46.4,36.8,29.97,ESE,115,4.0,5.0,69,0.00,,,0.00,Wunderground v.1.15,2013-10-21 02:31:00,
2013-10-20 22:36:00,46.0,36.4,29.97,ESE,112,3.0,5.0,69,0.00,,,0.00,Wunderground v.1.15,2013-10-21 02:36:00,
2013-10-20 22:41:00,45.7,36.5,29.97,ESE,112,4.0,6.0,70,0.00,,,0.00,Wunderground v.1.15,2013-10-21 02:41:00,
2013-10-20 22:46:00,45.5,36.3,29.97,ESE,112,3.0,6.0,70,0.00,,,0.00,Wunderground v.1.15,2013-10-21 02:46:00,
2013-10-20 22:51:00,45.5,36.3,29.97,ESE,113,5.0,6.0,70,0.00,,,0.00,Wunderground v.1.15,2013-10-21 02:51:00,
2013-10-20 22:56:00,45.5,36.3,29.97,ESE,116,6.0,7.0,70,0.00,,,0.00,Wunderground v.1.15,2013-10-21 02:56:00,
2013-10-20 23:01:00,45.5,36.3,29.98,ESE,109,3.0,5.0,70,0.00,,,0.00,Wunderground v.1.15,2013-10-21 03:01:00,
2013-10-20 23:06:00,45.4,36.2,29.98,ESE,111,5.0,7.0,70,0.00,,,0.00,Wunderground v.1.15,2013-10-21 03:06:00,
2013-10-20 23:11:00,45.4,36.2,29.98,ESE,114,5.0,7.0,70,0.00,,,0.00,Wunderground v.1.15,2013-10-21 03:11:00,
2013-10-20 23:16:00,45.5,36.3,29.98,ESE,117,6.0,9.0,70,0.00,,,0.00,Wunderground v.1.15,2013-10-21 03:16:00,
2013-10-20 23:21:00,45.4,36.2,29.98,ESE,116,4.0,6.0,70,0.00,,,0.00,Wunderground v.1.15,2013-10-21 03:21:00,
2013-10-20 23:27:00,45.4,36.2,29.98,ESE,114,3.0,6.0,70,0.00,,,0.00,Wunderground v.1.15,2013-10-21 03:27:00,
2013-10-20 23:32:00,45.2,36.0,29.98,ESE,114,3.0,5.0,70,0.00,,,0.00,Wunderground v.1.15,2013-10-21 03:32:00,
2013-10-20 23:37:00,45.1,36.3,29.98,SE,125,5.0,9.0,71,0.00,,,0.00,Wunderground v.1.15,2013-10-21 03:37:00,
2013-10-20 23:42:00,44.9,36.1,29.98,SE,126,5.0,9.0,71,0.00,,,0.00,Wunderground v.1.15,2013-10-21 03:42:00,
2013-10-20 23:47:00,44.8,36.0,29.98,SE,125,5.0,9.0,71,0.00,,,0.00,Wunderground v.1.15,2013-10-21 03:47:00,
2013-10-20 23:52:00,44.5,36.0,29.98,SE,132,6.0,7.0,72,0.00,,,0.00,Wunderground v.1.15,2013-10-21 03:52:00,
2013-10-20 23:57:00,44.5,36.0,29.98,SE,125,4.0,10.0,72,0.00,,,0.00,Wunderground v.1.15,2013-10-21 03:57:00,